Regional Weather Roundup
Issued by NWS Northern Indiana

Home | Current Version | Previous Version | Graphics & Text | Print | Product List | Glossary On
Versions: 1 2 3 4 5 6 7 8 9 10 11 12 13 14 15 16 17 18 19 20 21 22 23 24 25 26 27 28 29 30 31 32 33 34 35 36 37 38 39 40 41 42 43 44 45 46 47 48 49 50
000
ASUS43 KIWX 261010
RWRIWX

KIWX WEATHER ROUNDUP
NATIONAL WEATHER SERVICE NORTHERN INDIANA
600 AM EDT WED APR 26 2017

NOTE: "FAIR" INDICATES FEW OR NO CLOUDS BELOW 12,000 FEET WITH NO
SIGNIFICANT WEATHER AND/OR OBSTRUCTIONS TO VISIBILITY.

* THESE STATIONS ARE NOT UNDER NWS QUALITY CONTROL. THEY ALSO MAY NOT
  REPORT WEATHER SUCH AS PRECIPITATION OR FOG.

INZ001>027-261100-
NORTHERN INDIANA

CITY           SKY/WX    TMP DP  RH WIND       PRES   REMARKS
GARY*          CLOUDY    66  54  63 S10       29.52S
VALPARAISO     PTCLDY    65  56  72 S12       29.54F
MICHIGAN CITY* CLOUDY    63  54  72 SE7       29.54F
LAPORTE*       MOCLDY    62  55  78 S7        29.56S
KNOX*          CLOUDY    63  36  36 S13       29.56S
SOUTH BEND     CLOUDY    62  55  77 S12       29.58F
GOSHEN         CLOUDY    62  53  72 S10       29.59F
MONTICELLO*    CLOUDY    64  55  74 S9        29.57R
LOGANSPORT*    CLOUDY    63  54  72 S13       29.60S
ROCHESTER*     CLOUDY    64  55  72 S8        29.60S
WARSAW*        CLOUDY    61  54  77 S6        29.60F
ANGOLA*        CLEAR     57  55  94 SE5       29.63F
FORT WAYNE     CLOUDY    58  53  84 SE8       29.64S
HUNTINGTON*    PTCLDY    58  55  89 SE8       29.62F
PERU/GRISSOM   CLOUDY    61  58  88 S10       29.59F
MARION*        CLOUDY    59  54  82 S9        29.63F

$$
INZ028>050-261100-
CENTRAL INDIANA

CITY           SKY/WX    TMP DP  RH WIND       PRES   REMARKS
LAFAYETTE      MOCLDY    63  56  78 S10G17    29.57R
KOKOMO*        MOCLDY    61  55  81 S14       29.62S
MUNCIE*        CLEAR     62  54  74 S7        29.64F
INDIANAPOLIS   PTCLDY    61  55  81 SE12      29.62S

$$
MIZ043>046-050>051-056>058-064>065-071>073-077>080-261100-
SOUTHWEST LOWER MICHIGAN

CITY           SKY/WX    TMP DP  RH WIND       PRES   REMARKS
BATTLE CREEK   CLEAR     60  54  80 SE9       29.62F
BENTON HARBOR  PTCLDY    64  54  69 SE8       29.54F
COLDWATER*     MOCLDY    58  54  85 SE8       29.63S
HILLSDALE*     PTCLDY    57  52  82 SE6       29.64F
HOLLAND        CLOUDY    61  54  77 SE10      29.56F
GRAND RAPIDS   CLOUDY    60  55  83 SE9       29.59F
KALAMAZOO      PTCLDY    61  52  72 SE7       29.61S
STURGIS*       PTCLDY    59  55  84 SE9       29.61S
THREE RIVERS*  FAIR      61  54  78 S7        29.61S

$$
OHZ001>008-015>018-024>025-261100-
NORTHWEST OHIO

CITY           SKY/WX    TMP DP  RH WIND       PRES   REMARKS
WAUSEON*       FAIR      59  55  88 SE12      29.66F
DEFIANCE       CLOUDY    59  53  80 S6        29.66F
FINDLAY        PTCLDY    58  52  80 SE9       29.68F
TOLEDO EXPRESS MOCLDY    58  55  90 SE5       29.68S
TOLEDO METCALF CLEAR     56  54  93 S6        29.69S
LIMA           PTCLDY    57  54  89 SE8       29.68F

$$
AND FOR LAKE MICHIGAN COASTAL AND OPEN LAKE BUOY OBSERVATIONS

STATION/POSITION TEMP    WIND        PRES    VSBY  WAVE
                 AIR SEA DIR/SP/G                  HT/PER
                 (F)     (DEG/KT/KT) (MB)    (MI)  (FT/S)
CALUMET HARBOR    66     150/  7/ 13  998.5F
MICHIGAN CITY     64     150/ 13/ 16   N/A
BURNS HARBOR      66     150/  9/ 17 1000.3F
SOUTH LAKE BUOY   48 41  120/ 12/ 12 1000.2          1/ 3
4 MI NW BRIDGMAN  60 49  170/ 14/ 17 1000.4          2/ 2

$$
&&




USA.gov is the U.S. government's official web portal to all federal, state and local government web resources and services.